Location: Dziadowski
(50.3833°N, 20.0333°E)
Time: 23:21:20
(UTC+00:00)

Gblst 52 Del rocket - Pass Details

Date: 18 January 2026
Orbit: 805 x 1364 km, 51.5° (Epoch: 16 February)

Event Time Altitude Azimuth Distance (km) Brightness Sun altitude
Exits shadow 03:17:24 62° 112° (ESE) 906 4.4 -30.4°
Drops below altitude 10° 03:21:55 10° 108° (ESE) 2,394 7.4 -29.7°
Sets 03:24:24 0° 108° (ESE) 3,350 8.3 -29.3°
